Location: Unspecified
(0.0000°N, 0.0000°E)
Time: 06:50:03
(UTC+00:00)

Envisat - Pass Details

Date: 20 July 2017
Orbit: 764 x 766 km, 98.2° (Epoch: 20 July)

Event Time Altitude Azimuth Distance (km) Brightness Sun altitude
Exits shadow 20:37:27 25° 339° (NNW) 1,499 4.8 -35.0°
Drops below altitude 10° 20:39:31 10° 343° (NNW) 2,291 5.9 -35.5°
Sets 20:41:48 0° 345° (NNW) 3,214 6.7 -36.0°
